Location: Embarras
(53.3000°N, 116.9000°W)
Time: 10:00:30
(UTC+00:00)

MOZHAYETS 4 - Visible Passes

Search period start: 01 December 2023 00:00
Search period end: 11 December 2023 00:00
Orbit: 656 x 672 km, 98.3° (Epoch: 01 December)

Date Brightness Start Highest point End Pass type
(mag) Time Alt. Az. Time Alt. Az. Time Alt. Az.
01 Dec 9.7 01:14:20 10° N 01:18:07 26° WNW 01:21:55 10° WSW visible
02 Dec 7.9 00:07:42 10° NNE 00:12:21 84° WNW 00:16:58 10° SSW visible
02 Dec 10.3 01:45:52 10° NNW 01:48:39 16° NW 01:51:27 10° W visible
03 Dec 8.7 00:38:43 10° N 00:43:08 47° WNW 00:47:33 10° SW visible
04 Dec 9.6 01:09:54 10° N 01:13:48 28° WNW 01:17:42 10° WSW visible
05 Dec 10.3 01:41:21 10° NNW 01:44:20 17° NW 01:47:19 10° W visible
06 Dec 8.6 00:34:17 10° N 00:38:46 51° WNW 00:43:13 10° SW visible
06 Dec 10.6 02:13:40 10° NW 02:14:45 11° NW 02:15:50 10° WNW visible
07 Dec 9.5 01:05:25 10° N 01:09:26 30° WNW 01:13:26 10° WSW visible
08 Dec 10.2 01:36:48 10° NNW 01:39:58 19° NW 01:43:08 10° W visible
09 Dec 8.4 00:29:49 10° N 00:34:21 56° WNW 00:38:51 10° SW visible
09 Dec 10.5 02:08:49 10° NNW 02:10:23 12° NW 02:11:57 10° WNW visible
10 Dec 9.4 01:00:55 10° N 01:05:01 32° WNW 01:09:06 10° SW visible
